{"data":{"norad_id":56163,"epoch":"2026-05-25T03:36:01.872288Z","epoch_age_seconds":66087,"freshness":"FRESH","line1":"1 56163U 23050B   26145.15002167  .00000091  00000+0  70914-4 0  9995","line2":"2 56163  81.0000  93.6581 0007149  30.1460 330.0106 13.84980204158971","mean_motion":13.84980204,"eccentricity":0.0007149,"inclination_deg":81,"raan_deg":93.6581,"arg_perigee_deg":30.146,"mean_anomaly_deg":330.0106,"bstar":7.0914e-5,"rev_number":15897,"period_min":103.97260522866,"perigee_km":941.03931520416,"apogee_km":951.51176025061,"semimajor_km":7324.4125377274,"source":"CELESTRAK","updated_at":"2026-05-25T13:37:59.367154Z"}}